Time,TemperatureF,DewpointF,PressureIn,WindDirection,WindDirectionDegrees,WindSpeedMPH,WindSpeedGustMPH,Humidity,HourlyPrecipIn,Conditions,Clouds,dailyrainin,SoftwareType,DateUTC
2013-02-04 00:12:00,41.0,24.0,29.95,SSE,154,1.0,10.0,51,0.00,,,0.00,weatherlink.com 1.10,2013-02-04 07:12:00,
2013-02-04 00:27:00,41.2,24.0,29.95,WNW,292,2.0,10.0,50,0.00,,,0.00,weatherlink.com 1.10,2013-02-04 07:27:00,
2013-02-04 00:42:00,41.1,24.0,29.95,South,181,1.0,10.0,50,0.00,,,0.00,weatherlink.com 1.10,2013-02-04 07:42:00,
2013-02-04 00:57:00,41.1,24.0,29.94,WSW,243,0.0,11.0,50,0.00,,,0.00,weatherlink.com 1.10,2013-02-04 07:57:00,
2013-02-04 01:12:00,41.1,24.0,29.94,SSW,197,0.0,11.0,51,0.00,,,0.00,weatherlink.com 1.10,2013-02-04 08:12:00,
2013-02-04 01:27:00,41.1,24.0,29.94,SW,224,4.0,12.0,51,0.00,,,0.00,weatherlink.com 1.10,2013-02-04 08:27:00,
2013-02-04 01:42:00,41.0,24.0,29.94,SW,234,5.0,8.0,51,0.00,,,0.00,weatherlink.com 1.10,2013-02-04 08:42:00,
2013-02-04 01:57:00,40.9,24.0,29.94,SW,221,0.0,8.0,51,0.00,,,0.00,weatherlink.com 1.10,2013-02-04 08:57:00,
2013-02-04 02:12:00,40.9,24.0,29.93,SSE,155,4.0,9.0,51,0.00,,,0.00,weatherlink.com 1.10,2013-02-04 09:12:00,
2013-02-04 02:28:00,41.1,24.0,29.94,WSW,253,2.0,11.0,51,0.00,,,0.00,weatherlink.com 1.10,2013-02-04 09:28:00,
2013-02-04 02:43:00,41.3,24.0,29.92,SW,235,3.0,9.0,51,0.00,,,0.00,weatherlink.com 1.10,2013-02-04 09:43:00,
2013-02-04 02:58:00,41.4,25.0,29.91,SSE,150,6.0,11.0,52,0.00,,,0.00,weatherlink.com 1.10,2013-02-04 09:58:00,
2013-02-04 03:13:00,41.3,25.0,29.91,SSE,153,3.0,13.0,53,0.00,,,0.00,weatherlink.com 1.10,2013-02-04 10:13:00,
2013-02-04 03:28:00,41.6,25.0,29.91,WSW,250,5.0,11.0,52,0.00,,,0.00,weatherlink.com 1.10,2013-02-04 10:28:00,
2013-02-04 03:43:00,41.6,25.0,29.92,SW,215,0.0,7.0,52,0.00,,,0.00,weatherlink.com 1.10,2013-02-04 10:43:00,
2013-02-04 03:58:00,41.5,25.0,29.92,South,184,0.0,12.0,53,0.00,,,0.00,weatherlink.com 1.10,2013-02-04 10:58:00,
2013-02-04 04:13:00,41.9,25.0,29.92,WSW,243,3.0,17.0,52,0.00,,,0.00,weatherlink.com 1.10,2013-02-04 11:13:00,
2013-02-04 04:28:00,41.7,25.0,29.92,West,265,6.0,14.0,52,0.00,,,0.00,weatherlink.com 1.10,2013-02-04 11:28:00,
2013-02-04 04:43:00,42.1,25.0,29.92,South,171,4.0,22.0,51,0.00,,,0.00,weatherlink.com 1.10,2013-02-04 11:43:00,
2013-02-04 04:58:00,42.0,24.0,29.92,SSE,158,2.0,14.0,50,0.00,,,0.00,weatherlink.com 1.10,2013-02-04 11:58:00,
2013-02-04 05:13:00,42.0,24.0,29.92,SSE,147,13.0,21.0,49,0.00,,,0.00,weatherlink.com 1.10,2013-02-04 12:13:00,
2013-02-04 05:28:00,42.1,25.0,29.89,West,279,4.0,15.0,50,0.00,,,0.00,weatherlink.com 1.10,2013-02-04 12:28:00,
2013-02-04 05:43:00,41.8,25.0,29.89,WSW,242,3.0,14.0,52,0.00,,,0.00,weatherlink.com 1.10,2013-02-04 12:43:00,
2013-02-04 05:58:00,41.6,25.0,29.89,WSW,253,4.0,7.0,52,0.00,,,0.00,weatherlink.com 1.10,2013-02-04 12:58:00,
2013-02-04 06:13:00,41.7,25.0,29.89,WNW,287,0.0,11.0,52,0.00,,,0.00,weatherlink.com 1.10,2013-02-04 13:13:00,
2013-02-04 06:28:00,41.6,25.0,29.89,SSW,194,7.0,13.0,53,0.00,,,0.00,weatherlink.com 1.10,2013-02-04 13:28:00,
2013-02-04 06:43:00,41.9,26.0,29.89,ESE,112,5.0,14.0,53,0.00,,,0.00,weatherlink.com 1.10,2013-02-04 13:43:00,
2013-02-04 06:58:00,41.9,26.0,29.89,SSE,150,4.0,12.0,53,0.00,,,0.00,weatherlink.com 1.10,2013-02-04 13:58:00,
2013-02-04 07:13:00,42.0,25.0,29.89,West,262,4.0,17.0,52,0.00,,,0.00,weatherlink.com 1.10,2013-02-04 14:13:00,
2013-02-04 07:28:00,42.1,25.0,29.89,WSW,252,3.0,16.0,52,0.00,,,0.00,weatherlink.com 1.10,2013-02-04 14:28:00,
2013-02-04 07:43:00,42.1,25.0,29.89,South,190,4.0,15.0,52,0.00,,,0.00,weatherlink.com 1.10,2013-02-04 14:43:00,
2013-02-04 07:58:00,42.2,26.0,29.89,South,175,3.0,6.0,52,0.00,,,0.00,weatherlink.com 1.10,2013-02-04 14:58:00,
2013-02-04 08:13:00,42.2,26.0,29.89,SSE,159,6.0,21.0,52,0.00,,,0.00,weatherlink.com 1.10,2013-02-04 15:13:00,
2013-02-04 08:28:00,42.2,26.0,29.89,SSW,201,0.0,20.0,52,0.00,,,0.00,weatherlink.com 1.10,2013-02-04 15:28:00,
2013-02-04 08:43:00,42.4,26.0,29.89,WNW,282,6.0,17.0,52,0.00,,,0.00,weatherlink.com 1.10,2013-02-04 15:43:00,
2013-02-04 08:58:00,42.5,26.0,29.91,SSE,147,1.0,12.0,52,0.00,,,0.00,weatherlink.com 1.10,2013-02-04 15:58:00,
2013-02-04 09:13:00,42.7,26.0,29.89,SE,130,10.0,12.0,51,0.00,,,0.00,weatherlink.com 1.10,2013-02-04 16:13:00,
2013-02-04 09:28:00,43.0,26.0,29.89,SSE,161,6.0,13.0,51,0.00,,,0.00,weatherlink.com 1.10,2013-02-04 16:28:00,
2013-02-04 09:43:00,43.1,26.0,29.89,SSE,157,4.0,14.0,51,0.00,,,0.00,weatherlink.com 1.10,2013-02-04 16:43:00,
2013-02-04 09:58:00,42.8,26.0,29.88,WSW,254,3.0,18.0,52,0.00,,,0.00,weatherlink.com 1.10,2013-02-04 16:58:00,
2013-02-04 10:13:00,42.7,26.0,29.89,SSE,150,13.0,17.0,52,0.00,,,0.00,weatherlink.com 1.10,2013-02-04 17:13:00,
2013-02-04 10:43:00,42.9,26.0,29.90,SSE,165,2.0,14.0,51,0.00,,,0.00,weatherlink.com 1.10,2013-02-04 17:43:00,
2013-02-04 10:58:00,42.8,26.0,29.90,SSE,164,8.0,18.0,52,0.00,,,0.00,weatherlink.com 1.10,2013-02-04 17:58:00,
2013-02-04 11:13:00,43.2,26.0,29.90,SE,136,1.0,16.0,51,0.00,,,0.00,weatherlink.com 1.10,2013-02-04 18:13:00,
2013-02-04 11:28:00,43.4,26.0,29.90,WSW,245,7.0,22.0,51,0.00,,,0.00,weatherlink.com 1.10,2013-02-04 18:28:00,
2013-02-04 11:43:00,43.1,26.0,29.89,South,173,4.0,10.0,51,0.00,,,0.00,weatherlink.com 1.10,2013-02-04 18:43:00,
2013-02-04 11:58:00,42.9,26.0,29.88,SSE,166,0.0,12.0,52,0.00,,,0.00,weatherlink.com 1.10,2013-02-04 18:58:00,
2013-02-04 12:13:00,43.1,26.0,29.89,WSW,254,7.0,24.0,51,0.00,,,0.00,weatherlink.com 1.10,2013-02-04 19:13:00,
2013-02-04 12:28:00,43.0,26.0,29.88,SW,229,13.0,29.0,52,0.00,,,0.00,weatherlink.com 1.10,2013-02-04 19:28:00,
2013-02-04 12:43:00,42.9,26.0,29.87,WSW,254,10.0,30.0,51,0.00,,,0.00,weatherlink.com 1.10,2013-02-04 19:43:00,
2013-02-04 12:58:00,42.7,26.0,29.89,WSW,257,13.0,30.0,52,0.00,,,0.00,weatherlink.com 1.10,2013-02-04 19:58:00,
2013-02-04 13:13:00,42.9,26.0,29.88,SSE,163,8.0,23.0,52,0.00,,,0.00,weatherlink.com 1.10,2013-02-04 20:13:00,
2013-02-04 13:28:00,43.4,26.0,29.88,SW,224,6.0,22.0,51,0.00,,,0.00,weatherlink.com 1.10,2013-02-04 20:28:00,
2013-02-04 13:43:00,44.1,26.0,29.89,WSW,252,10.0,19.0,49,0.00,,,0.00,weatherlink.com 1.10,2013-02-04 20:43:00,
2013-02-04 13:58:00,44.2,26.0,29.88,South,173,1.0,18.0,49,0.00,,,0.00,weatherlink.com 1.10,2013-02-04 20:58:00,
2013-02-04 14:13:00,44.2,25.0,29.87,SW,236,10.0,19.0,48,0.00,,,0.00,weatherlink.com 1.10,2013-02-04 21:13:00,
2013-02-04 14:28:00,44.2,25.0,29.87,SSE,148,5.0,16.0,47,0.00,,,0.00,weatherlink.com 1.10,2013-02-04 21:28:00,
2013-02-04 14:43:00,44.3,25.0,29.87,SSW,198,5.0,18.0,47,0.00,,,0.00,weatherlink.com 1.10,2013-02-04 21:43:00,
2013-02-04 14:58:00,44.4,25.0,29.86,WSW,243,5.0,17.0,47,0.00,,,0.00,weatherlink.com 1.10,2013-02-04 21:58:00,
2013-02-04 15:13:00,44.2,25.0,29.86,WSW,257,10.0,22.0,47,0.00,,,0.00,weatherlink.com 1.10,2013-02-04 22:13:00,
2013-02-04 15:28:00,44.2,25.0,29.87,West,278,17.0,17.0,47,0.00,,,0.00,weatherlink.com 1.10,2013-02-04 22:28:00,
2013-02-04 15:43:00,44.1,25.0,29.87,SW,217,8.0,15.0,47,0.00,,,0.00,weatherlink.com 1.10,2013-02-04 22:43:00,
2013-02-04 15:59:00,44.0,25.0,29.88,SSE,161,1.0,16.0,47,0.00,,,0.00,weatherlink.com 1.10,2013-02-04 22:59:00,
2013-02-04 16:14:00,44.1,25.0,29.87,SSE,162,3.0,12.0,47,0.00,,,0.00,weatherlink.com 1.10,2013-02-04 23:14:00,
2013-02-04 16:29:00,44.5,25.0,29.87,SSE,167,2.0,12.0,46,0.00,,,0.00,weatherlink.com 1.10,2013-02-04 23:29:00,
2013-02-04 16:44:00,43.6,25.0,29.87,SSW,196,7.0,15.0,48,0.00,,,0.00,weatherlink.com 1.10,2013-02-04 23:44:00,
2013-02-04 16:59:00,43.3,25.0,29.88,SSE,165,3.0,8.0,48,0.00,,,0.00,weatherlink.com 1.10,2013-02-04 23:59:00,
2013-02-04 17:14:00,43.4,24.0,29.88,South,182,0.0,17.0,47,0.00,,,0.00,weatherlink.com 1.10,2013-02-05 00:14:00,
2013-02-04 17:29:00,42.9,25.0,29.89,WSW,250,6.0,8.0,49,0.00,,,0.00,weatherlink.com 1.10,2013-02-05 00:29:00,
2013-02-04 17:44:00,42.5,25.0,29.89,SSE,153,5.0,8.0,50,0.00,,,0.00,weatherlink.com 1.10,2013-02-05 00:44:00,
2013-02-04 17:59:00,42.4,25.0,29.89,South,174,1.0,5.0,51,0.00,,,0.00,weatherlink.com 1.10,2013-02-05 00:59:00,
2013-02-04 18:14:00,42.2,25.0,29.90,SSE,166,4.0,9.0,51,0.00,,,0.00,weatherlink.com 1.10,2013-02-05 01:14:00,
2013-02-04 18:29:00,42.2,25.0,29.90,SSW,211,0.0,5.0,51,0.00,,,0.00,weatherlink.com 1.10,2013-02-05 01:29:00,
2013-02-04 18:44:00,42.1,25.0,29.91,South,173,4.0,6.0,51,0.00,,,0.00,weatherlink.com 1.10,2013-02-05 01:44:00,
2013-02-04 18:59:00,42.2,25.0,29.91,WSW,249,1.0,9.0,51,0.00,,,0.00,weatherlink.com 1.10,2013-02-05 01:59:00,
2013-02-04 19:14:00,42.2,25.0,29.92,SW,216,0.0,6.0,50,0.00,,,0.00,weatherlink.com 1.10,2013-02-05 02:14:00,
2013-02-04 19:29:00,42.1,25.0,29.92,ESE,119,3.0,8.0,51,0.00,,,0.00,weatherlink.com 1.10,2013-02-05 02:29:00,
2013-02-04 19:44:00,42.3,25.0,29.92,SSE,151,2.0,13.0,51,0.00,,,0.00,weatherlink.com 1.10,2013-02-05 02:44:00,
2013-02-04 19:59:00,42.1,25.0,29.93,SSE,158,3.0,7.0,51,0.00,,,0.00,weatherlink.com 1.10,2013-02-05 02:59:00,
2013-02-04 20:14:00,41.9,25.0,29.92,South,189,1.0,5.0,51,0.00,,,0.00,weatherlink.com 1.10,2013-02-05 03:14:00,
2013-02-04 20:29:00,41.8,25.0,29.93,SSW,198,1.0,4.0,51,0.00,,,0.00,weatherlink.com 1.10,2013-02-05 03:29:00,
2013-02-04 20:44:00,41.6,25.0,29.93,South,171,0.0,3.0,52,0.00,,,0.00,weatherlink.com 1.10,2013-02-05 03:44:00,
2013-02-04 20:59:00,41.3,25.0,29.92,SSE,163,1.0,5.0,53,0.00,,,0.00,weatherlink.com 1.10,2013-02-05 03:59:00,
2013-02-04 21:14:00,41.4,25.0,29.93,South,176,0.0,7.0,53,0.00,,,0.00,weatherlink.com 1.10,2013-02-05 04:14:00,
2013-02-04 21:29:00,41.5,25.0,29.93,South,184,0.0,9.0,53,0.00,,,0.00,weatherlink.com 1.10,2013-02-05 04:29:00,
2013-02-04 21:44:00,41.6,25.0,29.93,South,178,0.0,7.0,53,0.00,,,0.00,weatherlink.com 1.10,2013-02-05 04:44:00,
2013-02-04 21:59:00,41.3,25.0,29.94,ESE,119,0.0,5.0,53,0.00,,,0.00,weatherlink.com 1.10,2013-02-05 04:59:00,
2013-02-04 22:14:00,40.7,25.0,29.93,SW,227,0.0,4.0,54,0.00,,,0.00,weatherlink.com 1.10,2013-02-05 05:14:00,
2013-02-04 22:29:00,41.1,25.0,29.94,South,175,0.0,6.0,53,0.00,,,0.00,weatherlink.com 1.10,2013-02-05 05:29:00,
2013-02-04 22:44:00,41.3,25.0,29.94,SW,221,1.0,4.0,52,0.00,,,0.00,weatherlink.com 1.10,2013-02-05 05:44:00,
2013-02-04 22:59:00,41.4,25.0,29.94,SSE,160,3.0,7.0,52,0.00,,,0.00,weatherlink.com 1.10,2013-02-05 05:59:00,
2013-02-04 23:14:00,41.0,25.0,29.94,SSW,203,2.0,6.0,53,0.00,,,0.00,weatherlink.com 1.10,2013-02-05 06:14:00,
2013-02-04 23:29:00,40.9,25.0,29.94,SW,215,1.0,8.0,53,0.00,,,0.00,weatherlink.com 1.10,2013-02-05 06:29:00,
2013-02-04 23:44:00,41.1,25.0,29.95,SW,234,0.0,8.0,53,0.00,,,0.00,weatherlink.com 1.10,2013-02-05 06:44:00,
2013-02-04 23:59:00,41.3,25.0,29.95,South,175,0.0,10.0,52,0.00,,,0.00,weatherlink.com 1.10,2013-02-05 06:59:00,